Zurück zum Katalog

ARIANE 5 R/B

AktivHEO
NORAD 39218·ROCKET BODY·🇫🇷 France

Gestartet Jul 25, 2013 von Guiana Space Centre

Loading…

Nächste Überflüge (nächste 24 Stunden)

TLE

AktuellSource: Space-Track

Epoche: Sep 14, 2026, 11:31 UTC

1 39218U 13038D   26257.48003208  .00024436  00000-0  10924-2 0  9992
2 39218   3.0403 142.4565 6513057   8.5186 358.7335  3.35103335128187

Verfolge ARIANE 5 R/B in Echtzeit mit AllMySat

Download on the App Store